timestamp,waterbody_station,lease,latitude,longitude,deployment_start_date,deployment_end_date,sensor,depth,mooring,Temperature_degrees Celsius,Dissolved Oxygen_percent saturation
2017-07-27T00:00:00,Merigomish Harbour-Back Harbour,1320.0,45.6322,-62.5058,2017-06-25,2017-11-01,HOBO-10194920,1.0,float,23.617,
2017-07-27T00:15:00,Merigomish Harbour-Back Harbour,1320.0,45.6322,-62.5058,2017-06-25,2017-11-01,HOBO-10194920,1.0,float,23.521,
2017-07-27T00:30:00,Merigomish Harbour-Back Harbour,1320.0,45.6322,-62.5058,2017-06-25,2017-11-01,HOBO-10194920,1.0,float,23.448,
2017-07-27T00:45:00,Merigomish Harbour-Back Harbour,1320.0,45.6322,-62.5058,2017-06-25,2017-11-01,HOBO-10194920,1.0,float,23.376,
2017-07-27T01:00:00,Merigomish Harbour-Back Harbour,1320.0,45.6322,-62.5058,2017-06-25,2017-11-01,HOBO-10194920,1.0,float,23.232,
2017-07-27T01:15:00,Merigomish Harbour-Back Harbour,1320.0,45.6322,-62.5058,2017-06-25,2017-11-01,HOBO-10194920,1.0,float,23.112,
2017-07-27T01:30:00,Merigomish Harbour-Back Harbour,1320.0,45.6322,-62.5058,2017-06-25,2017-11-01,HOBO-10194920,1.0,float,23.088,
2017-07-27T01:45:00,Merigomish Harbour-Back Harbour,1320.0,45.6322,-62.5058,2017-06-25,2017-11-01,HOBO-10194920,1.0,float,22.992,
2017-07-27T02:00:00,Merigomish Harbour-Back Harbour,1320.0,45.6322,-62.5058,2017-06-25,2017-11-01,HOBO-10194920,1.0,float,22.848,
2017-07-27T02:15:00,Merigomish Harbour-Back Harbour,1320.0,45.6322,-62.5058,2017-06-25,2017-11-01,HOBO-10194920,1.0,float,22.705,
2017-07-27T02:30:00,Merigomish Harbour-Back Harbour,1320.0,45.6322,-62.5058,2017-06-25,2017-11-01,HOBO-10194920,1.0,float,22.513,
2017-07-27T02:45:00,Merigomish Harbour-Back Harbour,1320.0,45.6322,-62.5058,2017-06-25,2017-11-01,HOBO-10194920,1.0,float,22.274,
2017-07-27T03:00:00,Merigomish Harbour-Back Harbour,1320.0,45.6322,-62.5058,2017-06-25,2017-11-01,HOBO-10194920,1.0,float,21.987,
2017-07-27T03:15:00,Merigomish Harbour-Back Harbour,1320.0,45.6322,-62.5058,2017-06-25,2017-11-01,HOBO-10194920,1.0,float,21.795,
2017-07-27T03:30:00,Merigomish Harbour-Back Harbour,1320.0,45.6322,-62.5058,2017-06-25,2017-11-01,HOBO-10194920,1.0,float,21.676,
2017-07-27T03:45:00,Merigomish Harbour-Back Harbour,1320.0,45.6322,-62.5058,2017-06-25,2017-11-01,HOBO-10194920,1.0,float,21.628,
2017-07-27T04:00:00,Merigomish Harbour-Back Harbour,1320.0,45.6322,-62.5058,2017-06-25,2017-11-01,HOBO-10194920,1.0,float,21.604,
2017-07-27T04:15:00,Merigomish Harbour-Back Harbour,1320.0,45.6322,-62.5058,2017-06-25,2017-11-01,HOBO-10194920,1.0,float,21.485,
2017-07-27T04:30:00,Merigomish Harbour-Back Harbour,1320.0,45.6322,-62.5058,2017-06-25,2017-11-01,HOBO-10194920,1.0,float,21.437,
2017-07-27T04:45:00,Merigomish Harbour-Back Harbour,1320.0,45.6322,-62.5058,2017-06-25,2017-11-01,HOBO-10194920,1.0,float,21.366,
2017-07-27T05:00:00,Merigomish Harbour-Back Harbour,1320.0,45.6322,-62.5058,2017-06-25,2017-11-01,HOBO-10194920,1.0,float,21.342,
2017-07-27T05:15:00,Merigomish Harbour-Back Harbour,1320.0,45.6322,-62.5058,2017-06-25,2017-11-01,HOBO-10194920,1.0,float,21.294,
2017-07-27T05:30:00,Merigomish Harbour-Back Harbour,1320.0,45.6322,-62.5058,2017-06-25,2017-11-01,HOBO-10194920,1.0,float,21.246,
2017-07-27T05:45:00,Merigomish Harbour-Back Harbour,1320.0,45.6322,-62.5058,2017-06-25,2017-11-01,HOBO-10194920,1.0,float,21.175,
2017-07-27T06:00:00,Merigomish Harbour-Back Harbour,1320.0,45.6322,-62.5058,2017-06-25,2017-11-01,HOBO-10194920,1.0,float,21.151,
2017-07-27T06:15:00,Merigomish Harbour-Back Harbour,1320.0,45.6322,-62.5058,2017-06-25,2017-11-01,HOBO-10194920,1.0,float,21.127,
2017-07-27T06:30:00,Merigomish Harbour-Back Harbour,1320.0,45.6322,-62.5058,2017-06-25,2017-11-01,HOBO-10194920,1.0,float,21.103,
2017-07-27T06:45:00,Merigomish Harbour-Back Harbour,1320.0,45.6322,-62.5058,2017-06-25,2017-11-01,HOBO-10194920,1.0,float,21.079,
2017-07-27T07:00:00,Merigomish Harbour-Back Harbour,1320.0,45.6322,-62.5058,2017-06-25,2017-11-01,HOBO-10194920,1.0,float,21.056,
2017-07-27T07:15:00,Merigomish Harbour-Back Harbour,1320.0,45.6322,-62.5058,2017-06-25,2017-11-01,HOBO-10194920,1.0,float,21.008,
2017-07-27T07:30:00,Merigomish Harbour-Back Harbour,1320.0,45.6322,-62.5058,2017-06-25,2017-11-01,HOBO-10194920,1.0,float,20.96,
2017-07-27T07:45:00,Merigomish Harbour-Back Harbour,1320.0,45.6322,-62.5058,2017-06-25,2017-11-01,HOBO-10194920,1.0,float,20.96,
2017-07-27T08:00:00,Merigomish Harbour-Back Harbour,1320.0,45.6322,-62.5058,2017-06-25,2017-11-01,HOBO-10194920,1.0,float,20.936,
2017-07-27T08:15:00,Merigomish Harbour-Back Harbour,1320.0,45.6322,-62.5058,2017-06-25,2017-11-01,HOBO-10194920,1.0,float,20.913,
2017-07-27T08:30:00,Merigomish Harbour-Back Harbour,1320.0,45.6322,-62.5058,2017-06-25,2017-11-01,HOBO-10194920,1.0,float,20.913,
2017-07-27T08:45:00,Merigomish Harbour-Back Harbour,1320.0,45.6322,-62.5058,2017-06-25,2017-11-01,HOBO-10194920,1.0,float,20.841,
2017-07-27T09:00:00,Merigomish Harbour-Back Harbour,1320.0,45.6322,-62.5058,2017-06-25,2017-11-01,HOBO-10194920,1.0,float,20.865,
2017-07-27T09:15:00,Merigomish Harbour-Back Harbour,1320.0,45.6322,-62.5058,2017-06-25,2017-11-01,HOBO-10194920,1.0,float,20.841,
2017-07-27T09:30:00,Merigomish Harbour-Back Harbour,1320.0,45.6322,-62.5058,2017-06-25,2017-11-01,HOBO-10194920,1.0,float,20.841,
2017-07-27T09:45:00,Merigomish Harbour-Back Harbour,1320.0,45.6322,-62.5058,2017-06-25,2017-11-01,HOBO-10194920,1.0,float,20.793,
2017-07-27T10:00:00,Merigomish Harbour-Back Harbour,1320.0,45.6322,-62.5058,2017-06-25,2017-11-01,HOBO-10194920,1.0,float,20.817,
2017-07-27T10:15:00,Merigomish Harbour-Back Harbour,1320.0,45.6322,-62.5058,2017-06-25,2017-11-01,HOBO-10194920,1.0,float,20.841,
2017-07-27T10:30:00,Merigomish Harbour-Back Harbour,1320.0,45.6322,-62.5058,2017-06-25,2017-11-01,HOBO-10194920,1.0,float,20.817,
2017-07-27T10:45:00,Merigomish Harbour-Back Harbour,1320.0,45.6322,-62.5058,2017-06-25,2017-11-01,HOBO-10194920,1.0,float,20.865,
2017-07-27T11:00:00,Merigomish Harbour-Back Harbour,1320.0,45.6322,-62.5058,2017-06-25,2017-11-01,HOBO-10194920,1.0,float,20.817,
2017-07-27T11:15:00,Merigomish Harbour-Back Harbour,1320.0,45.6322,-62.5058,2017-06-25,2017-11-01,HOBO-10194920,1.0,float,20.841,
2017-07-27T11:30:00,Merigomish Harbour-Back Harbour,1320.0,45.6322,-62.5058,2017-06-25,2017-11-01,HOBO-10194920,1.0,float,20.865,
2017-07-27T11:45:00,Merigomish Harbour-Back Harbour,1320.0,45.6322,-62.5058,2017-06-25,2017-11-01,HOBO-10194920,1.0,float,20.841,
2017-07-27T12:00:00,Merigomish Harbour-Back Harbour,1320.0,45.6322,-62.5058,2017-06-25,2017-11-01,HOBO-10194920,1.0,float,20.817,
2017-07-27T12:15:00,Merigomish Harbour-Back Harbour,1320.0,45.6322,-62.5058,2017-06-25,2017-11-01,HOBO-10194920,1.0,float,20.865,
2017-07-27T12:30:00,Merigomish Harbour-Back Harbour,1320.0,45.6322,-62.5058,2017-06-25,2017-11-01,HOBO-10194920,1.0,float,20.865,
2017-07-27T12:45:00,Merigomish Harbour-Back Harbour,1320.0,45.6322,-62.5058,2017-06-25,2017-11-01,HOBO-10194920,1.0,float,20.913,
2017-07-27T13:00:00,Merigomish Harbour-Back Harbour,1320.0,45.6322,-62.5058,2017-06-25,2017-11-01,HOBO-10194920,1.0,float,20.936,
2017-07-27T13:15:00,Merigomish Harbour-Back Harbour,1320.0,45.6322,-62.5058,2017-06-25,2017-11-01,HOBO-10194920,1.0,float,20.984,
2017-07-27T13:30:00,Merigomish Harbour-Back Harbour,1320.0,45.6322,-62.5058,2017-06-25,2017-11-01,HOBO-10194920,1.0,float,21.079,
2017-07-27T13:45:00,Merigomish Harbour-Back Harbour,1320.0,45.6322,-62.5058,2017-06-25,2017-11-01,HOBO-10194920,1.0,float,21.079,
2017-07-27T14:00:00,Merigomish Harbour-Back Harbour,1320.0,45.6322,-62.5058,2017-06-25,2017-11-01,HOBO-10194920,1.0,float,21.056,
2017-07-27T14:15:00,Merigomish Harbour-Back Harbour,1320.0,45.6322,-62.5058,2017-06-25,2017-11-01,HOBO-10194920,1.0,float,21.127,
2017-07-27T14:30:00,Merigomish Harbour-Back Harbour,1320.0,45.6322,-62.5058,2017-06-25,2017-11-01,HOBO-10194920,1.0,float,21.199,
2017-07-27T14:45:00,Merigomish Harbour-Back Harbour,1320.0,45.6322,-62.5058,2017-06-25,2017-11-01,HOBO-10194920,1.0,float,21.199,
2017-07-27T15:00:00,Merigomish Harbour-Back Harbour,1320.0,45.6322,-62.5058,2017-06-25,2017-11-01,HOBO-10194920,1.0,float,21.175,
2017-07-27T15:15:00,Merigomish Harbour-Back Harbour,1320.0,45.6322,-62.5058,2017-06-25,2017-11-01,HOBO-10194920,1.0,float,21.151,
2017-07-27T15:30:00,Merigomish Harbour-Back Harbour,1320.0,45.6322,-62.5058,2017-06-25,2017-11-01,HOBO-10194920,1.0,float,21.223,
2017-07-27T15:45:00,Merigomish Harbour-Back Harbour,1320.0,45.6322,-62.5058,2017-06-25,2017-11-01,HOBO-10194920,1.0,float,21.223,
2017-07-27T16:00:00,Merigomish Harbour-Back Harbour,1320.0,45.6322,-62.5058,2017-06-25,2017-11-01,HOBO-10194920,1.0,float,21.246,
2017-07-27T16:15:00,Merigomish Harbour-Back Harbour,1320.0,45.6322,-62.5058,2017-06-25,2017-11-01,HOBO-10194920,1.0,float,21.27,
2017-07-27T16:30:00,Merigomish Harbour-Back Harbour,1320.0,45.6322,-62.5058,2017-06-25,2017-11-01,HOBO-10194920,1.0,float,21.294,
2017-07-27T16:45:00,Merigomish Harbour-Back Harbour,1320.0,45.6322,-62.5058,2017-06-25,2017-11-01,HOBO-10194920,1.0,float,21.151,
2017-07-27T17:00:00,Merigomish Harbour-Back Harbour,1320.0,45.6322,-62.5058,2017-06-25,2017-11-01,HOBO-10194920,1.0,float,20.984,
2017-07-27T17:15:00,Merigomish Harbour-Back Harbour,1320.0,45.6322,-62.5058,2017-06-25,2017-11-01,HOBO-10194920,1.0,float,20.865,
2017-07-27T17:30:00,Merigomish Harbour-Back Harbour,1320.0,45.6322,-62.5058,2017-06-25,2017-11-01,HOBO-10194920,1.0,float,20.817,
2017-07-27T17:45:00,Merigomish Harbour-Back Harbour,1320.0,45.6322,-62.5058,2017-06-25,2017-11-01,HOBO-10194920,1.0,float,20.77,
2017-07-27T18:00:00,Merigomish Harbour-Back Harbour,1320.0,45.6322,-62.5058,2017-06-25,2017-11-01,HOBO-10194920,1.0,float,20.77,
2017-07-27T18:15:00,Merigomish Harbour-Back Harbour,1320.0,45.6322,-62.5058,2017-06-25,2017-11-01,HOBO-10194920,1.0,float,20.77,
2017-07-27T18:30:00,Merigomish Harbour-Back Harbour,1320.0,45.6322,-62.5058,2017-06-25,2017-11-01,HOBO-10194920,1.0,float,20.77,
2017-07-27T18:45:00,Merigomish Harbour-Back Harbour,1320.0,45.6322,-62.5058,2017-06-25,2017-11-01,HOBO-10194920,1.0,float,20.793,
2017-07-27T19:00:00,Merigomish Harbour-Back Harbour,1320.0,45.6322,-62.5058,2017-06-25,2017-11-01,HOBO-10194920,1.0,float,20.865,
2017-07-27T19:15:00,Merigomish Harbour-Back Harbour,1320.0,45.6322,-62.5058,2017-06-25,2017-11-01,HOBO-10194920,1.0,float,21.175,
2017-07-27T19:30:00,Merigomish Harbour-Back Harbour,1320.0,45.6322,-62.5058,2017-06-25,2017-11-01,HOBO-10194920,1.0,float,21.27,
2017-07-27T19:45:00,Merigomish Harbour-Back Harbour,1320.0,45.6322,-62.5058,2017-06-25,2017-11-01,HOBO-10194920,1.0,float,21.39,
2017-07-27T20:00:00,Merigomish Harbour-Back Harbour,1320.0,45.6322,-62.5058,2017-06-25,2017-11-01,HOBO-10194920,1.0,float,21.413,
2017-07-27T20:15:00,Merigomish Harbour-Back Harbour,1320.0,45.6322,-62.5058,2017-06-25,2017-11-01,HOBO-10194920,1.0,float,21.485,
2017-07-27T20:30:00,Merigomish Harbour-Back Harbour,1320.0,45.6322,-62.5058,2017-06-25,2017-11-01,HOBO-10194920,1.0,float,21.628,
2017-07-27T20:45:00,Merigomish Harbour-Back Harbour,1320.0,45.6322,-62.5058,2017-06-25,2017-11-01,HOBO-10194920,1.0,float,21.772,
2017-07-27T21:00:00,Merigomish Harbour-Back Harbour,1320.0,45.6322,-62.5058,2017-06-25,2017-11-01,HOBO-10194920,1.0,float,21.843,
2017-07-27T21:00:00,Caribou Harbour-Waterside,1351.0,45.75625,-62.770311,2017-06-24,2017-11-28,HOBO-10755242,1.0,float,23.088,
2017-07-27T21:15:00,Caribou Harbour-Waterside,1351.0,45.75625,-62.770311,2017-06-24,2017-11-28,HOBO-10755242,1.0,float,21.151,
2017-07-27T21:15:00,Merigomish Harbour-Back Harbour,1320.0,45.6322,-62.5058,2017-06-25,2017-11-01,HOBO-10194920,1.0,float,21.867,
2017-07-27T21:30:00,Merigomish Harbour-Back Harbour,1320.0,45.6322,-62.5058,2017-06-25,2017-11-01,HOBO-10194920,1.0,float,21.915,
2017-07-27T21:30:00,Caribou Harbour-Waterside,1351.0,45.75625,-62.770311,2017-06-24,2017-11-28,HOBO-10755242,1.0,float,21.628,
2017-07-27T21:45:00,Caribou Harbour-Waterside,1351.0,45.75625,-62.770311,2017-06-24,2017-11-28,HOBO-10755242,1.0,float,21.103,
2017-07-27T21:45:00,Merigomish Harbour-Back Harbour,1320.0,45.6322,-62.5058,2017-06-25,2017-11-01,HOBO-10194920,1.0,float,21.867,
2017-07-27T22:00:00,Caribou Harbour-Waterside,1351.0,45.75625,-62.770311,2017-06-24,2017-11-28,HOBO-10755242,1.0,float,20.984,
2017-07-27T22:00:00,Merigomish Harbour-Back Harbour,1320.0,45.6322,-62.5058,2017-06-25,2017-11-01,HOBO-10194920,1.0,float,21.795,
2017-07-27T22:15:00,Caribou Harbour-Waterside,1351.0,45.75625,-62.770311,2017-06-24,2017-11-28,HOBO-10755242,1.0,float,20.841,
2017-07-27T22:15:00,Merigomish Harbour-Back Harbour,1320.0,45.6322,-62.5058,2017-06-25,2017-11-01,HOBO-10194920,1.0,float,21.724,
2017-07-27T22:30:00,Caribou Harbour-Waterside,1351.0,45.75625,-62.770311,2017-06-24,2017-11-28,HOBO-10755242,1.0,float,20.698,
2017-07-27T22:30:00,Merigomish Harbour-Back Harbour,1320.0,45.6322,-62.5058,2017-06-25,2017-11-01,HOBO-10194920,1.0,float,21.628,
2017-07-27T22:45:00,Caribou Harbour-Waterside,1351.0,45.75625,-62.770311,2017-06-24,2017-11-28,HOBO-10755242,1.0,float,20.579,
2017-07-27T22:45:00,Merigomish Harbour-Back Harbour,1320.0,45.6322,-62.5058,2017-06-25,2017-11-01,HOBO-10194920,1.0,float,21.533,
2017-07-27T23:00:00,Merigomish Harbour-Back Harbour,1320.0,45.6322,-62.5058,2017-06-25,2017-11-01,HOBO-10194920,1.0,float,21.437,
2017-07-27T23:00:00,Caribou Harbour-Waterside,1351.0,45.75625,-62.770311,2017-06-24,2017-11-28,HOBO-10755242,1.0,float,20.436,
2017-07-27T23:15:00,Caribou Harbour-Waterside,1351.0,45.75625,-62.770311,2017-06-24,2017-11-28,HOBO-10755242,1.0,float,20.269,
2017-07-27T23:15:00,Merigomish Harbour-Back Harbour,1320.0,45.6322,-62.5058,2017-06-25,2017-11-01,HOBO-10194920,1.0,float,21.318,
2017-07-27T23:30:00,Merigomish Harbour-Back Harbour,1320.0,45.6322,-62.5058,2017-06-25,2017-11-01,HOBO-10194920,1.0,float,21.199,
2017-07-27T23:30:00,Caribou Harbour-Waterside,1351.0,45.75625,-62.770311,2017-06-24,2017-11-28,HOBO-10755242,1.0,float,20.055,
2017-07-27T23:45:00,Caribou Harbour-Waterside,1351.0,45.75625,-62.770311,2017-06-24,2017-11-28,HOBO-10755242,1.0,float,19.841,
2017-07-27T23:45:00,Merigomish Harbour-Back Harbour,1320.0,45.6322,-62.5058,2017-06-25,2017-11-01,HOBO-10194920,1.0,float,21.103,
